QPF
0.00 0.00 0.00 0.00 0.00 0.01 0.02 0.03 0.03 0.03 0.03 0.04 0.04 0.05 0.07 0.08 0.06 0.05 0.06 0.06 0.06 0.06 0.07 0.07 0.07 0.05 0.05 0.05 0.05 0.07 0.08 0.07 0.06 0.07 0.08 0.06 0.04 0.04 0.02 0.01 0.03 0.02 0.03
0.00 0.00 0.00 0.01 0.01 0.01 0.02 0.03 0.03 0.05 0.04 0.04 0.05 0.06 0.08 0.08 0.07 0.07 0.08 0.06 0.06 0.06 0.07 0.08 0.07 0.06 0.08 0.07 0.08 0.09 0.11 0.09 0.07 0.07 0.12 0.13 0.12 0.09 0.03 0.02 0.01 0.01 0.02
0.00 0.00 0.00 0.01 0.02 0.01 0.02 0.03 0.04 0.05 0.06 0.06 0.07 0.07 0.09 0.10 0.09 0.07 0.07 0.06 0.07 0.07 0.07 0.06 0.06 0.07 0.05 0.09 0.10 0.09 0.11 0.12 0.10 0.07 0.10 0.14 0.18 0.14 0.06 0.02 0.02 0.02 0.03
0.00 0.00 0.00 0.01 0.02 0.02 0.02 0.04 0.04 0.04 0.06 0.07 0.07 0.08 0.08 0.09 0.09 0.08 0.08 0.08 0.09 0.08 0.05 0.04 0.05 0.06 0.05 0.08 0.06 0.09 0.11 0.12 0.11 0.10 0.08 0.09 0.13 0.15 0.11 0.07 0.04 0.04 0.03
0.00 0.00 0.00 0.01 0.02 0.01 0.02 0.03 0.05 0.05 0.05 0.08 0.09 0.08 0.09 0.10 0.10 0.10 0.10 0.08 0.08 0.06 0.06 0.06 0.06 0.06 0.06 0.08 0.07 0.12 0.11 0.11 0.10 0.10 0.09 0.11 0.10 0.09 0.10 0.13 0.09 0.07 0.03
0.00 0.00 0.00 0.00 0.02 0.01 0.02 0.03 0.05 0.05 0.05 0.07 0.07 0.07 0.09 0.09 0.09 0.10 0.10 0.09 0.08 0.07 0.09 0.10 0.10 0.09 0.09 0.11 0.09 0.11 0.11 0.12 0.12 0.09 0.09 0.10 0.09 0.08 0.10 0.10 0.09 0.07 0.04
0.00 0.00 0.00 0.00 0.01 0.02 0.02 0.04 0.04 0.05 0.05 0.04 0.05 0.06 0.07 0.08 0.09 0.08 0.09 0.08 0.08 0.08 0.08 0.10 0.10 0.09 0.10 0.12 0.13 0.13 0.14 0.13 0.12 0.09 0.08 0.09 0.09 0.07 0.07 0.09 0.09 0.09 0.05
0.01 0.01 0.00 0.00 0.01 0.02 0.02 0.04 0.05 0.06 0.06 0.05 0.06 0.06 0.08 0.12 0.13 0.09 0.08 0.08 0.08 0.07 0.07 0.10 0.11 0.11 0.11 0.10 0.14 0.10 0.11 0.12 0.10 0.07 0.10 0.09 0.07 0.06 0.08 0.10 0.12 0.13 0.09
0.01 0.03 0.01 0.01 0.01 0.02 0.03 0.03 0.04 0.05 0.07 0.06 0.07 0.09 0.12 0.14 0.14 0.10 0.08 0.08 0.08 0.07 0.08 0.10 0.11 0.13 0.14 0.14 0.16 0.12 0.11 0.13 0.10 0.08 0.10 0.10 0.07 0.07 0.08 0.09 0.11 0.13 0.13
0.01 0.03 0.03 0.02 0.02 0.03 0.05 0.06 0.06 0.05 0.06 0.07 0.10 0.10 0.12 0.13 0.10 0.08 0.08 0.07 0.08 0.08 0.09 0.11 0.11 0.11 0.12 0.15 0.15 0.14 0.13 0.14 0.12 0.12 0.13 0.12 0.08 0.08 0.08 0.08 0.09 0.11 0.13
0.01 0.01 0.02 0.02 0.02 0.02 0.06 0.09 0.08 0.05 0.05 0.07 0.09 0.11 0.08 0.05 0.05 0.06 0.07 0.08 0.09 0.08 0.07 0.08 0.10 0.10 0.12 0.14 0.16 0.14 0.12 0.11 0.11 0.11 0.12 0.10 0.10 0.11 0.11 0.11 0.11 0.10 0.12
0.06 0.04 0.01 0.01 0.01 0.00 0.01 0.03 0.03 0.02 0.03 0.05 0.06 0.07 0.06 0.06 0.07 0.08 0.08 0.08 0.08 0.07 0.08 0.08 0.07 0.07 0.11 0.14 0.14 0.11 0.11 0.10 0.09 0.09 0.09 0.09 0.09 0.11 0.12 0.12 0.12 0.11 0.12
0.02 0.03 0.01 0.01 0.01 0.01 0.00 0.00 0.01 0.01 0.02 0.02 0.03 0.04 0.05 0.05 0.06 0.06 0.06 0.06 0.06 0.07 0.08 0.07 0.06 0.05 0.06 0.10 0.12 0.10 0.11 0.11 0.11 0.12 0.11 0.09 0.09 0.10 0.12 0.11 0.09 0.08 0.08
0.00 0.00 0.00 0.01 0.02 0.02 0.02 0.01 0.02 0.01 0.01 0.01 0.02 0.04 0.04 0.05 0.05 0.04 0.04 0.04 0.05 0.04 0.05 0.05 0.05 0.05 0.05 0.06 0.09 0.10 0.10 0.11 0.12 0.14 0.16 0.15 0.13 0.11 0.10 0.09 0.09 0.10 0.11
0.00 0.00 0.00 0.01 0.02 0.02 0.02 0.03 0.03 0.03 0.01 0.01 0.01 0.03 0.04 0.05 0.06 0.06 0.05 0.04 0.04 0.03 0.04 0.04 0.05 0.06 0.06 0.06 0.08 0.10 0.10 0.12 0.13 0.15 0.16 0.16 0.15 0.13 0.12 0.10 0.12 0.12 0.13
0.00 0.00 0.00 0.01 0.01 0.02 0.02 0.03 0.03 0.03 0.02 0.01 0.01 0.03 0.04 0.04 0.05 0.05 0.04 0.05 0.05 0.05 0.05 0.05 0.05 0.05 0.03 0.05 0.06 0.06 0.07 0.09 0.09 0.09 0.09 0.10 0.09 0.09 0.10 0.09 0.10 0.09 0.11
0.00 0.00 0.00 0.01 0.02 0.02 0.03 0.03 0.02 0.03 0.02 0.02 0.02 0.02 0.03 0.05 0.05 0.04 0.03 0.04 0.03 0.03 0.03 0.04 0.04 0.03 0.04 0.04 0.04 0.05 0.05 0.08 0.09 0.08 0.09 0.08 0.07 0.07 0.07 0.08 0.08 0.07 0.08
0.00 0.00 0.00 0.01 0.03 0.05 0.05 0.05 0.04 0.03 0.03 0.03 0.03 0.02 0.03 0.05 0.06 0.04 0.03 0.03 0.02 0.02 0.02 0.02 0.02 0.03 0.03 0.02 0.02 0.03 0.03 0.05 0.06 0.06 0.07 0.08 0.08 0.08 0.08 0.08 0.09 0.09 0.09
0.01 0.01 0.00 0.01 0.02 0.06 0.08 0.07 0.05 0.03 0.02 0.02 0.02 0.01 0.02 0.03 0.04 0.04 0.03 0.02 0.02 0.02 0.02 0.02 0.01 0.01 0.01 0.01 0.01 0.01 0.01 0.02 0.02 0.03 0.04 0.05 0.06 0.08 0.10 0.11 0.11 0.11 0.10
0.01 0.01 0.01 0.01 0.01 0.01 0.02 0.02 0.02 0.01 0.01 0.01 0.02 0.02 0.01 0.01 0.01 0.01 0.02 0.02 0.02 0.02 0.02 0.01 0.01 0.01 0.01 0.02 0.01 0.01 0.01 0.02 0.02 0.02 0.02 0.03 0.05 0.08 0.09 0.11 0.13 0.13 0.11
0.01 0.01 0.00 0.00 0.00 0.00 0.01 0.01 0.01 0.01 0.01 0.02 0.01 0.01 0.01 0.01 0.01 0.01 0.01 0.01 0.02 0.02 0.01 0.01 0.02 0.02 0.03 0.03 0.02 0.02 0.01 0.02 0.02 0.02 0.01 0.02 0.04 0.05 0.07 0.09 0.11 0.14 0.13
0.02 0.02 0.01 0.02 0.02 0.01 0.01 0.01 0.02 0.02 0.02 0.02 0.01 0.01 0.01 0.01 0.01 0.02 0.02 0.02 0.03 0.03 0.02 0.03 0.03 0.03 0.03 0.02 0.02 0.02 0.02 0.02 0.02 0.03 0.03 0.03 0.03 0.04 0.05 0.05 0.06 0.07 0.06
0.02 0.03 0.03 0.03 0.03 0.03 0.02 0.02 0.02 0.02 0.02 0.01 0.01 0.01 0.01 0.01 0.02 0.02 0.03 0.03 0.03 0.03 0.03 0.03 0.03 0.02 0.02 0.02 0.01 0.01 0.02 0.01 0.01 0.01 0.02 0.03 0.03 0.04 0.04 0.04 0.05 0.04 0.04
0.02 0.03 0.03 0.04 0.04 0.04 0.03 0.03 0.02 0.01 0.01 0.01 0.01 0.01 0.01 0.01 0.01 0.01 0.02 0.02 0.02 0.03 0.02 0.03 0.02 0.02 0.03 0.02 0.02 0.01 0.01 0.01 0.01 0.01 0.02 0.03 0.04 0.04 0.04 0.04 0.04 0.03 0.03
0.02 0.04 0.05 0.06 0.06 0.05 0.04 0.03 0.02 0.01 0.01 0.01 0.01 0.01 0.01 0.01 0.01 0.02 0.02 0.02 0.02 0.02 0.02 0.02 0.02 0.03 0.03 0.04 0.03 0.03 0.02 0.02 0.02 0.02 0.02 0.02 0.03 0.03 0.03 0.04 0.03 0.03 0.03
0.03 0.04 0.04 0.05 0.04 0.03 0.02 0.02 0.01 0.02 0.02 0.02 0.02 0.02 0.02 0.02 0.02 0.03 0.02 0.02 0.02 0.02 0.02 0.02 0.02 0.02 0.03 0.03 0.03 0.03 0.02 0.03 0.02 0.02 0.01 0.01 0.01 0.02 0.02 0.02 0.03 0.02 0.02
MSLP
1009.06 1009.84 1010.57 1011.20 1011.73 1012.18 1012.56 1012.89 1013.19 1013.47 1013.74 1013.99 1014.22 1014.44 1014.65 1014.85 1015.06 1015.28 1015.52 1015.78 1016.05 1016.33 1016.61 1016.88 1017.14 1017.38 1017.62 1017.85 1018.08 1018.31 1018.54 1018.76 1018.95 1019.10 1019.18 1019.21 1019.17 1019.09 1018.97 1018.86 1018.79 1018.78 1018.86
1008.77 1009.62 1010.41 1011.09 1011.65 1012.10 1012.48 1012.80 1013.09 1013.37 1013.65 1013.92 1014.18 1014.41 1014.61 1014.80 1014.97 1015.15 1015.34 1015.57 1015.82 1016.10 1016.40 1016.69 1016.98 1017.24 1017.48 1017.71 1017.92 1018.13 1018.34 1018.54 1018.73 1018.90 1019.02 1019.07 1019.06 1018.98 1018.86 1018.71 1018.57 1018.48 1018.47
1008.33 1009.23 1010.07 1010.80 1011.41 1011.89 1012.29 1012.64 1012.96 1013.27 1013.59 1013.90 1014.19 1014.44 1014.65 1014.81 1014.95 1015.07 1015.22 1015.39 1015.61 1015.87 1016.16 1016.46 1016.76 1017.03 1017.27 1017.47 1017.66 1017.84 1018.01 1018.20 1018.39 1018.57 1018.72 1018.82 1018.86 1018.82 1018.71 1018.55 1018.37 1018.22 1018.12
1007.76 1008.69 1009.58 1010.37 1011.03 1011.58 1012.03 1012.43 1012.82 1013.19 1013.57 1013.94 1014.27 1014.55 1014.77 1014.91 1015.00 1015.07 1015.14 1015.25 1015.41 1015.63 1015.90 1016.18 1016.47 1016.74 1016.96 1017.15 1017.30 1017.45 1017.59 1017.76 1017.94 1018.14 1018.33 1018.48 1018.57 1018.59 1018.52 1018.38 1018.20 1018.00 1017.84
1007.15 1008.09 1009.02 1009.86 1010.60 1011.22 1011.75 1012.22 1012.68 1013.13 1013.58 1014.02 1014.40 1014.71 1014.93 1015.06 1015.10 1015.11 1015.11 1015.14 1015.22 1015.38 1015.60 1015.86 1016.12 1016.37 1016.58 1016.75 1016.88 1016.99 1017.11 1017.25 1017.43 1017.64 1017.86 1018.06 1018.22 1018.30 1018.29 1018.20 1018.03 1017.83 1017.63
1006.60 1007.53 1008.49 1009.39 1010.19 1010.88 1011.49 1012.04 1012.57 1013.09 1013.61 1014.10 1014.53 1014.87 1015.10 1015.21 1015.22 1015.16 1015.09 1015.04 1015.05 1015.14 1015.29 1015.51 1015.74 1015.96 1016.15 1016.29 1016.40 1016.49 1016.58 1016.70 1016.87 1017.08 1017.33 1017.57 1017.79 1017.94 1018.00 1017.97 1017.86 1017.68 1017.48
1006.22 1007.14 1008.11 1009.04 1009.88 1010.63 1011.29 1011.90 1012.47 1013.05 1013.61 1014.15 1014.61 1014.97 1015.21 1015.31 1015.29 1015.20 1015.07 1014.95 1014.89 1014.91 1015.00 1015.16 1015.35 1015.55 1015.71 1015.83 1015.91 1015.97 1016.04 1016.13 1016.28 1016.48 1016.72 1016.99 1017.26 1017.47 1017.61 1017.66 1017.61 1017.50 1017.34
1006.09 1006.98 1007.93 1008.87 1009.73 1010.50 1011.18 1011.81 1012.41 1013.00 1013.58 1014.13 1014.61 1014.98 1015.23 1015.34 1015.32 1015.20 1015.03 1014.88 1014.77 1014.73 1014.77 1014.88 1015.03 1015.19 1015.32 1015.41 1015.47 1015.49 1015.51 1015.56 1015.66 1015.82 1016.04 1016.31 1016.59 1016.85 1017.06 1017.19 1017.24 1017.22 1017.14
1006.21 1007.05 1007.98 1008.90 1009.75 1010.51 1011.18 1011.79 1012.37 1012.94 1013.50 1014.03 1014.51 1014.90 1015.16 1015.28 1015.28 1015.18 1015.02 1014.85 1014.72 1014.65 1014.66 1014.72 1014.83 1014.94 1015.03 1015.08 1015.09 1015.06 1015.02 1015.00 1015.02 1015.12 1015.28 1015.50 1015.77 1016.05 1016.31 1016.52 1016.68 1016.78 1016.83
1006.52 1007.32 1008.21 1009.09 1009.90 1010.62 1011.26 1011.82 1012.35 1012.88 1013.39 1013.89 1014.35 1014.73 1015.02 1015.18 1015.22 1015.17 1015.06 1014.92 1014.80 1014.72 1014.71 1014.74 1014.80 1014.86 1014.90 1014.89 1014.82 1014.72 1014.59 1014.47 1014.39 1014.38 1014.44 1014.59 1014.80 1015.06 1015.35 1015.64 1015.91 1016.14 1016.34
1006.90 1007.66 1008.50 1009.34 1010.11 1010.79 1011.38 1011.89 1012.36 1012.82 1013.28 1013.73 1014.17 1014.55 1014.87 1015.09 1015.20 1015.23 1015.19 1015.11 1015.03 1014.98 1014.95 1014.96 1014.97 1014.97 1014.94 1014.85 1014.70 1014.49 1014.26 1014.01 1013.80 1013.65 1013.58 1013.60 1013.73 1013.94 1014.22 1014.56 1014.92 1015.30 1015.67
1007.20 1007.93 1008.74 1009.54 1010.29 1010.94 1011.49 1011.96 1012.38 1012.78 1013.19 1013.61 1014.02 1014.42 1014.77 1015.05 1015.25 1015.38 1015.43 1015.44 1015.42 1015.40 1015.38 1015.35 1015.32 1015.25 1015.14 1014.96 1014.71 1014.40 1014.03 1013.66 1013.29 1012.99 1012.76 1012.65 1012.66 1012.78 1013.04 1013.39 1013.83 1014.33 1014.86
1007.32 1008.03 1008.82 1009.61 1010.35 1011.00 1011.54 1012.00 1012.41 1012.78 1013.16 1013.55 1013.95 1014.36 1014.75 1015.10 1015.39 1015.61 1015.77 1015.86 1015.91 1015.93 1015.91 1015.87 1015.78 1015.65 1015.46 1015.18 1014.84 1014.41 1013.94 1013.43 1012.93 1012.47 1012.10 1011.84 1011.71 1011.74 1011.93 1012.27 1012.74 1013.34 1014.01
1007.20 1007.89 1008.67 1009.48 1010.24 1010.92 1011.51 1011.99 1012.41 1012.80 1013.17 1013.56 1013.97 1014.39 1014.81 1015.22 1015.59 1015.90 1016.15 1016.33 1016.44 1016.49 1016.48 1016.41 1016.28 1016.09 1015.82 1015.47 1015.04 1014.54 1013.97 1013.37 1012.76 1012.18 1011.68 1011.28 1011.03 1010.95 1011.06 1011.36 1011.84 1012.48 1013.25
1006.85 1007.52 1008.31 1009.14 1009.96 1010.70 1011.36 1011.92 1012.40 1012.82 1013.22 1013.62 1014.04 1014.48 1014.93 1015.38 1015.80 1016.18 1016.50 1016.74 1016.90 1016.97 1016.97 1016.88 1016.72 1016.48 1016.16 1015.77 1015.29 1014.75 1014.14 1013.49 1012.83 1012.18 1011.59 1011.10 1010.74 1010.56 1010.59 1010.82 1011.27 1011.91 1012.72
1006.36 1007.00 1007.79 1008.65 1009.53 1010.36 1011.11 1011.77 1012.33 1012.82 1013.26 1013.69 1014.13 1014.58 1015.04 1015.52 1015.97 1016.39 1016.74 1017.02 1017.21 1017.30 1017.30 1017.21 1017.02 1016.76 1016.43 1016.03 1015.55 1015.02 1014.43 1013.80 1013.14 1012.49 1011.88 1011.34 1010.92 1010.67 1010.61 1010.77 1011.15 1011.75 1012.54
1005.85 1006.44 1007.22 1008.10 1009.03 1009.94 1010.79 1011.54 1012.20 1012.77 1013.27 1013.73 1014.18 1014.64 1015.10 1015.58 1016.03 1016.47 1016.84 1017.14 1017.34 1017.45 1017.45 1017.35 1017.18 1016.92 1016.61 1016.24 1015.82 1015.35 1014.84 1014.28 1013.70 1013.11 1012.54 1012.02 1011.59 1011.29 1011.17 1011.25 1011.55 1012.07 1012.79
1005.45 1005.97 1006.70 1007.57 1008.53 1009.50 1010.43 1011.28 1012.02 1012.66 1013.22 1013.71 1014.17 1014.62 1015.07 1015.53 1015.97 1016.40 1016.77 1017.08 1017.29 1017.41 1017.43 1017.36 1017.21 1016.99 1016.73 1016.43 1016.11 1015.75 1015.36 1014.93 1014.48 1014.01 1013.53 1013.07 1012.67 1012.38 1012.22 1012.24 1012.45 1012.87 1013.48
1005.26 1005.67 1006.33 1007.16 1008.11 1009.11 1010.09 1011.00 1011.81 1012.51 1013.10 1013.62 1014.08 1014.52 1014.96 1015.39 1015.81 1016.22 1016.59 1016.90 1017.13 1017.27 1017.32 1017.29 1017.19 1017.04 1016.85 1016.65 1016.44 1016.22 1015.97 1015.71 1015.41 1015.09 1014.74 1014.39 1014.06 1013.80 1013.63 1013.60 1013.74 1014.05 1014.54
1005.29 1005.59 1006.15 1006.91 1007.83 1008.81 1009.80 1010.74 1011.58 1012.32 1012.94 1013.47 1013.94 1014.37 1014.78 1015.19 1015.60 1016.00 1016.37 1016.69 1016.95 1017.12 1017.22 1017.25 1017.21 1017.14 1017.04 1016.95 1016.85 1016.76 1016.66 1016.55 1016.42 1016.24 1016.04 1015.81 1015.58 1015.37 1015.22 1015.17 1015.24 1015.46 1015.83
1005.53 1005.71 1006.15 1006.83 1007.67 1008.61 1009.59 1010.52 1011.38 1012.12 1012.76 1013.30 1013.77 1014.19 1014.59 1015.00 1015.40 1015.80 1016.18 1016.53 1016.83 1017.06 1017.22 1017.31 1017.35 1017.36 1017.35 1017.34 1017.34 1017.36 1017.39 1017.40 1017.40 1017.36 1017.28 1017.17 1017.03 1016.89 1016.78 1016.73 1016.77 1016.91 1017.17
1005.89 1005.96 1006.29 1006.87 1007.63 1008.52 1009.45 1010.36 1011.21 1011.96 1012.60 1013.15 1013.62 1014.05 1014.45 1014.85 1015.26 1015.67 1016.09 1016.47 1016.83 1017.12 1017.35 1017.52 1017.63 1017.71 1017.77 1017.83 1017.90 1017.99 1018.09 1018.18 1018.26 1018.32 1018.34 1018.32 1018.27 1018.20 1018.13 1018.10 1018.12 1018.22 1018.42
1006.29 1006.27 1006.52 1007.01 1007.69 1008.51 1009.39 1010.27 1011.10 1011.85 1012.49 1013.04 1013.52 1013.95 1014.36 1014.77 1015.19 1015.64 1016.09 1016.52 1016.93 1017.30 1017.60 1017.84 1018.03 1018.17 1018.28 1018.38 1018.47 1018.58 1018.70 1018.82 1018.94 1019.04 1019.11 1019.15 1019.16 1019.16 1019.15 1019.15 1019.18 1019.27 1019.41
1006.66 1006.59 1006.77 1007.19 1007.81 1008.57 1009.40 1010.25 1011.06 1011.79 1012.43 1012.99 1013.47 1013.91 1014.32 1014.74 1015.19 1015.66 1016.15 1016.64 1017.11 1017.54 1017.92 1018.23 1018.47 1018.65 1018.79 1018.90 1018.99 1019.08 1019.16 1019.27 1019.36 1019.46 1019.55 1019.62 1019.67 1019.72 1019.75 1019.79 1019.86 1019.95 1020.09
1006.94 1006.85 1007.01 1007.39 1007.97 1008.68 1009.47 1010.29 1011.07 1011.79 1012.42 1012.97 1013.45 1013.89 1014.30 1014.73 1015.19 1015.68 1016.21 1016.74 1017.27 1017.76 1018.20 1018.57 1018.86 1019.07 1019.22 1019.31 1019.37 1019.41 1019.45 1019.49 1019.53 1019.59 1019.66 1019.73 1019.80 1019.88 1019.96 1020.05 1020.15 1020.28 1020.42
1007.16 1007.09 1007.24 1007.61 1008.16 1008.84 1009.60 1010.39 1011.14 1011.83 1012.44 1012.97 1013.43 1013.86 1014.27 1014.70 1015.16 1015.66 1016.20 1016.77 1017.34 1017.88 1018.37 1018.79 1019.11 1019.35 1019.50 1019.57 1019.59 1019.57 1019.53 1019.50 1019.47 1019.48 1019.51 1019.56 1019.64 1019.74 1019.86 1020.00 1020.15 1020.31 1020.48
Thickness
5835 5831 5824 5818 5811 5803 5796 5790 5785 5781 5778 5773 5768 5765 5763 5763 5762 5760 5758 5755 5753 5752 5751 5750 5749 5748 5747 5746 5746 5745 5743 5743 5744 5740 5738 5741 5744 5744 5744 5743 5742 5741 5739
5832 5826 5821 5816 5809 5802 5797 5791 5786 5782 5778 5774 5771 5767 5764 5763 5762 5760 5757 5755 5753 5752 5752 5749 5749 5748 5747 5746 5745 5744 5742 5742 5744 5739 5733 5729 5733 5739 5745 5743 5742 5741 5740
5830 5824 5819 5814 5809 5803 5797 5793 5787 5782 5778 5774 5770 5767 5763 5761 5759 5758 5756 5756 5754 5752 5751 5750 5749 5748 5747 5745 5744 5744 5741 5738 5741 5743 5736 5727 5724 5730 5738 5742 5742 5741 5740
5834 5825 5819 5814 5809 5805 5800 5794 5788 5783 5779 5775 5770 5765 5760 5756 5758 5758 5757 5756 5755 5753 5752 5751 5749 5748 5747 5746 5745 5745 5743 5740 5737 5740 5741 5739 5736 5727 5726 5734 5739 5740 5738
5835 5826 5821 5816 5812 5808 5802 5795 5789 5783 5779 5775 5771 5766 5763 5761 5760 5759 5757 5756 5756 5754 5752 5751 5749 5748 5746 5746 5745 5745 5743 5742 5739 5738 5739 5738 5737 5736 5727 5722 5728 5733 5736
5835 5827 5823 5817 5812 5808 5803 5796 5788 5783 5779 5775 5772 5767 5763 5761 5758 5757 5755 5755 5755 5754 5753 5751 5749 5747 5746 5745 5745 5744 5743 5742 5740 5740 5740 5737 5734 5732 5730 5725 5725 5725 5730
5831 5824 5819 5814 5809 5805 5801 5796 5788 5782 5778 5775 5771 5768 5765 5762 5758 5757 5756 5755 5754 5753 5752 5751 5749 5747 5746 5746 5745 5743 5742 5741 5739 5739 5738 5739 5738 5738 5735 5729 5725 5724 5726
5830 5824 5819 5814 5809 5804 5800 5795 5788 5782 5778 5774 5770 5768 5766 5763 5760 5759 5758 5756 5756 5755 5753 5751 5749 5747 5746 5745 5744 5743 5741 5741 5739 5739 5738 5737 5737 5738 5736 5731 5725 5719 5719
5828 5823 5819 5814 5809 5804 5799 5794 5787 5781 5777 5773 5770 5767 5764 5762 5760 5759 5758 5757 5756 5755 5753 5751 5749 5747 5746 5744 5743 5741 5740 5740 5738 5738 5737 5735 5735 5735 5735 5733 5728 5719 5711
5826 5822 5818 5814 5809 5805 5799 5794 5787 5781 5777 5773 5770 5767 5764 5762 5760 5758 5756 5756 5755 5754 5752 5750 5748 5747 5745 5744 5742 5740 5739 5738 5737 5736 5734 5732 5731 5731 5731 5729 5727 5724 5717
5824 5820 5817 5814 5809 5803 5797 5791 5785 5781 5776 5772 5769 5766 5764 5762 5760 5757 5756 5755 5753 5752 5750 5749 5747 5746 5744 5743 5740 5739 5738 5735 5734 5733 5731 5729 5728 5726 5725 5724 5722 5720 5716
5823 5819 5815 5811 5806 5801 5795 5789 5785 5780 5776 5772 5769 5766 5763 5761 5759 5756 5755 5753 5751 5750 5748 5747 5745 5743 5742 5740 5738 5736 5735 5732 5730 5728 5727 5725 5724 5721 5720 5718 5716 5714 5712
5822 5815 5810 5807 5803 5798 5794 5789 5785 5781 5778 5773 5768 5764 5761 5759 5756 5754 5753 5750 5748 5747 5746 5744 5741 5740 5739 5737 5736 5734 5731 5729 5727 5725 5722 5721 5719 5716 5714 5713 5711 5709 5707
5817 5812 5807 5803 5800 5796 5792 5787 5784 5781 5777 5772 5767 5762 5759 5756 5754 5752 5750 5747 5745 5743 5741 5739 5737 5736 5734 5733 5731 5730 5727 5724 5722 5720 5718 5716 5714 5711 5709 5707 5705 5702 5699
5812 5808 5803 5799 5795 5792 5788 5785 5782 5778 5775 5769 5764 5760 5757 5755 5752 5749 5746 5744 5742 5740 5737 5735 5732 5730 5729 5727 5726 5724 5722 5719 5716 5714 5712 5710 5709 5706 5704 5701 5699 5696 5692
5809 5805 5801 5796 5792 5788 5785 5782 5778 5774 5771 5766 5761 5758 5755 5751 5748 5745 5742 5739 5737 5734 5732 5729 5727 5725 5723 5721 5720 5718 5716 5713 5710 5708 5706 5704 5702 5699 5697 5695 5692 5690 5686
5808 5803 5799 5795 5790 5787 5783 5778 5774 5771 5766 5762 5758 5754 5751 5747 5744 5741 5738 5734 5731 5729 5726 5724 5722 5719 5716 5715 5713 5711 5709 5706 5703 5701 5699 5697 5695 5692 5690 5687 5685 5682 5680
5807 5803 5798 5793 5789 5785 5780 5776 5772 5767 5762 5758 5754 5751 5747 5743 5740 5736 5733 5729 5726 5723 5720 5718 5716 5713 5710 5708 5706 5704 5702 5699 5696 5694 5692 5689 5687 5685 5682 5680 5676 5672 5669
5808 5802 5798 5792 5787 5781 5775 5771 5766 5761 5757 5753 5750 5747 5743 5739 5735 5731 5727 5724 5721 5717 5715 5712 5710 5707 5703 5701 5700 5697 5695 5692 5689 5686 5684 5682 5679 5677 5675 5673 5668 5663 5659
5804 5799 5795 5789 5782 5777 5773 5765 5760 5756 5752 5749 5746 5743 5739 5735 5731 5726 5723 5719 5716 5713 5710 5707 5704 5701 5698 5695 5693 5691 5690 5686 5682 5679 5676 5673 5671 5669 5667 5665 5661 5656 5651
5796 5793 5788 5781 5776 5772 5767 5760 5755 5750 5748 5745 5741 5737 5733 5730 5726 5722 5718 5715 5712 5708 5704 5701 5698 5695 5692 5688 5686 5684 5683 5680 5676 5672 5668 5664 5661 5660 5658 5655 5652 5647 5644
5785 5783 5778 5772 5769 5765 5759 5753 5748 5746 5744 5740 5735 5731 5727 5724 5721 5716 5712 5710 5706 5702 5699 5695 5692 5689 5685 5681 5678 5676 5674 5671 5668 5664 5659 5655 5652 5650 5648 5645 5642 5638 5634
5773 5772 5767 5761 5758 5755 5752 5745 5742 5740 5736 5731 5727 5723 5720 5717 5713 5709 5706 5703 5700 5697 5694 5690 5686 5682 5678 5674 5670 5667 5664 5662 5659 5654 5650 5646 5643 5640 5638 5635 5632 5629 5625
5763 5760 5756 5751 5746 5745 5743 5739 5736 5733 5728 5722 5718 5715 5711 5708 5705 5702 5699 5695 5692 5690 5687 5684 5680 5676 5672 5667 5663 5659 5654 5652 5649 5645 5640 5637 5633 5631 5627 5624 5621 5618 5615
5752 5749 5744 5740 5737 5735 5732 5730 5727 5723 5718 5714 5710 5707 5703 5699 5694 5689 5685 5683 5678 5676 5675 5674 5671 5667 5662 5657 5654 5652 5649 5646 5641 5636 5632 5629 5625 5622 5618 5614 5611 5608 5604
5738 5735 5732 5728 5726 5724 5721 5719 5717 5714 5709 5705 5702 5699 5695 5690 5686 5680 5673 5668 5666 5664 5662 5661 5659 5655 5651 5647 5645 5643 5640 5636 5632 5629 5625 5621 5618 5614 5609 5605 5601 5597 5593